Probability
0 0 0 1 2 2 2 1 2 4 5 5 5 7 9 9 10 11 12 12 13 13 13 15 15 15 14 15 16 17 15 15 16 16 15 15 17 19 19 19 17 14 13 15
0 0 0 0 2 3 3 2 3 4 5 6 6 8 11 12 13 14 14 13 12 13 14 16 17 16 15 16 17 17 17 17 17 17 17 17 17 18 19 19 17 14 12 12
0 0 0 2 3 4 4 4 4 3 4 6 7 8 11 13 14 14 15 14 13 14 15 17 18 17 16 16 17 18 19 19 19 18 17 17 17 17 17 18 17 14 11 10
0 0 1 4 5 6 6 6 5 4 5 6 8 8 9 11 12 12 13 16 17 16 15 16 16 17 17 17 18 21 22 22 20 17 16 17 16 15 15 16 16 14 13 12
0 0 2 5 6 6 6 6 6 6 6 7 7 7 8 10 11 11 13 17 19 18 16 16 15 16 18 20 21 22 23 24 22 18 17 17 16 14 14 14 15 14 14 14
0 0 2 5 4 4 6 7 6 6 7 8 8 9 10 12 13 13 14 17 18 17 18 17 16 17 20 23 22 20 21 22 21 18 17 16 16 15 14 14 15 15 15 15
0 1 4 5 4 5 7 9 7 6 7 9 12 15 16 17 17 16 16 16 17 18 20 19 17 17 21 22 21 19 18 18 18 17 15 14 14 15 15 15 16 17 15 14
1 3 4 5 6 8 10 10 9 9 10 12 16 20 21 20 19 19 19 17 16 18 20 19 18 17 18 19 18 17 15 14 14 13 12 11 12 13 14 14 13 14 12 9
3 3 5 6 8 10 10 11 12 13 12 14 17 20 21 20 18 19 18 17 16 17 18 18 17 15 15 15 14 14 14 14 13 10 8 7 9 11 12 12 11 10 7 5
4 4 5 6 7 8 9 11 12 13 12 14 16 17 17 16 16 17 16 16 16 17 18 18 16 15 13 12 12 11 12 13 11 8 6 5 7 9 11 11 10 8 5 2
4 4 5 5 5 6 8 10 12 12 12 13 13 14 13 11 13 15 15 15 16 18 19 17 16 15 13 12 11 9 9 10 9 7 6 6 7 8 10 10 9 7 3 1
5 6 6 5 5 8 10 12 14 15 14 13 11 11 10 8 10 12 14 15 16 17 18 16 15 14 14 12 10 8 7 8 8 7 7 8 8 8 8 6 4 2 1 0
7 7 8 8 9 11 13 14 16 17 16 13 11 11 11 10 10 12 13 15 16 17 17 15 14 13 12 10 7 6 5 6 7 7 8 10 10 9 8 5 2 1 0 0
7 9 10 11 12 12 14 15 16 17 17 14 12 13 13 13 14 14 13 13 14 15 15 14 13 13 11 7 4 3 3 5 7 8 9 9 10 10 9 7 4 2 1 0
8 9 11 11 11 11 12 12 14 15 16 15 14 13 13 13 14 13 11 10 12 14 16 15 13 13 11 6 3 3 4 6 8 9 8 8 8 8 8 7 6 4 2 0
10 10 10 10 10 10 10 10 11 13 13 12 12 11 10 11 12 10 7 7 10 14 16 16 14 13 11 6 3 4 6 7 8 8 7 7 7 7 6 5 5 5 4 2
11 10 9 9 9 9 8 8 8 9 9 9 9 9 9 10 9 8 6 6 10 13 15 15 14 12 9 5 2 3 5 5 6 7 6 6 6 6 4 3 4 5 5 4
11 9 8 6 6 6 6 7 7 7 7 8 7 7 8 9 8 6 6 6 8 11 12 11 10 8 6 4 2 1 2 3 5 6 6 5 5 5 3 1 1 3 3 2
8 7 6 4 3 3 4 6 7 8 9 9 8 7 8 9 7 5 4 4 5 6 8 6 4 4 4 4 2 1 1 2 5 6 6 4 4 3 1 0 0 1 1 0
5 5 4 3 2 3 5 7 8 9 9 8 7 7 8 9 8 6 4 4 4 3 3 2 2 3 4 3 2 1 1 1 4 6 5 4 3 1 0 0 0 0 0 0
4 3 3 3 4 5 7 8 8 7 6 5 5 7 8 9 8 6 5 5 4 2 1 0 1 3 3 2 1 2 2 3 4 5 4 3 3 1 0 0 0 0 1 1
3 3 3 3 4 5 7 8 8 7 5 3 4 6 7 7 7 5 4 4 3 1 0 0 0 1 1 0 1 2 4 5 5 5 4 4 4 2 1 0 0 1 2 2
3 3 4 4 5 5 6 7 8 7 5 4 4 5 6 6 6 4 3 2 1 0 0 0 0 0 0 1 1 2 4 4 4 4 3 4 5 3 1 1 1 1 2 2
4 4 5 6 6 6 6 5 5 5 4 3 3 4 4 4 5 3 1 0 0 0 0 0 0 0 0 1 2 3 3 3 3 3 3 4 4 3 2 1 1 1 1 1
4 5 5 6 6 6 5 4 4 4 4 3 3 3 3 3 4 3 1 1 1 0 0 0 0 0 0 2 3 3 3 3 3 3 3 3 3 2 1 1 0 0 0 0
4 4 4 3 3 3 3 3 3 3 3 3 3 4 4 3 3 2 2 2 1 1 1 1 0 0 1 3 4 4 3 3 3 2 2 2 1 1 0 0 0 0 0 0
3 3 3 2 1 1 1 1 1 2 1 2 3 5 5 3 2 1 1 1 1 2 2 2 1 0 1 4 5 5 4 3 3 2 1 1 0 0 0 0 0 0 0 0
Wind_Speed
9 6 7 8 8 10 11 10 9 6 4 2 2 3 3 4 5 5 5 5 5 4 4 5 5 5 5 4 4 4 4 4 4 3 2 2 2 2 1 1 1 0 1 1
10 9 8 9 9 10 10 9 9 7 5 1 3 3 3 3 5 5 5 5 5 4 4 5 5 5 5 5 4 4 4 4 4 3 3 2 2 2 1 1 0 0 1 1
10 9 10 12 9 9 9 8 8 8 4 4 5 5 4 3 3 3 4 4 4 4 4 4 5 5 5 5 5 4 4 4 4 3 2 2 2 2 1 1 1 1 1 2
8 8 13 4 2 5 7 6 7 5 3 4 4 4 4 2 3 3 3 3 4 4 4 4 5 5 4 5 5 4 4 3 3 3 2 2 2 1 1 1 1 0 1 2
8 11 10 5 3 5 7 6 5 5 4 4 5 6 5 3 3 3 3 3 3 4 5 5 5 5 5 5 5 4 3 3 3 2 2 2 2 1 1 0 0 0 1 1
9 12 10 3 2 2 6 7 3 4 5 6 7 6 4 5 4 4 4 4 4 5 5 5 5 5 5 4 4 3 3 3 2 2 2 2 1 1 1 1 0 0 1 2
11 11 6 1 1 5 8 1 1 3 4 5 5 1 5 6 5 5 5 5 5 5 5 4 4 4 4 4 3 3 3 3 2 2 2 2 2 1 1 0 1 1 1 1
9 11 6 2 3 4 2 3 1 1 2 3 4 5 6 7 6 6 6 6 6 6 5 5 4 4 4 3 3 3 3 3 2 1 1 2 2 1 1 0 1 1 1 1
3 1 3 1 1 2 2 1 0 1 2 4 5 6 6 6 6 6 6 6 5 6 6 5 5 4 4 3 3 2 2 2 2 2 1 1 1 1 1 1 1 1 1 1
3 2 1 0 1 1 2 1 0 2 3 4 5 6 6 6 6 6 6 6 6 6 6 5 4 4 3 3 3 2 2 2 2 2 2 1 0 0 0 1 1 1 1 2
4 2 1 1 1 1 1 1 2 3 3 4 5 6 6 6 6 6 6 6 6 5 5 5 5 4 3 3 3 3 2 2 2 2 2 1 1 1 0 1 2 2 2 2
3 1 2 0 1 1 2 2 3 4 4 4 5 6 6 5 6 6 6 6 5 5 5 5 4 4 3 3 3 2 2 2 2 2 2 2 2 2 2 2 2 1 1 3
1 1 1 0 1 1 2 2 3 3 4 4 4 4 5 5 5 6 6 5 5 5 4 4 3 3 3 2 2 2 2 1 1 1 1 2 2 2 2 3 5 4 3 2
1 1 1 1 1 2 2 3 3 4 4 4 4 4 4 5 5 5 5 5 5 5 4 4 3 3 3 2 2 2 2 1 2 2 2 2 2 2 2 2 2 2 5 6
2 2 2 2 2 2 3 4 4 4 4 4 4 4 4 5 5 5 4 4 4 4 3 3 2 2 2 2 2 2 2 1 2 2 2 2 3 3 3 3 3 2 1 3
2 2 3 3 3 3 4 4 4 4 4 3 3 3 4 4 4 4 4 4 4 3 2 2 2 2 2 2 2 2 2 2 2 3 3 2 2 3 3 3 3 3 2 1
3 3 3 4 4 4 4 5 4 4 3 3 4 4 5 5 4 4 4 4 3 2 2 2 1 1 2 2 3 2 2 3 5 4 3 2 3 3 4 4 3 3 2 1
4 3 3 3 4 4 4 4 4 5 4 4 5 5 6 6 5 4 4 4 3 2 2 2 2 2 2 2 3 3 2 2 3 3 2 2 3 3 3 3 4 4 3 1
2 2 2 2 3 3 3 3 4 4 4 4 5 5 5 5 4 4 4 4 3 3 2 2 2 3 2 2 3 3 3 3 3 3 2 2 4 3 3 3 4 4 3 3
1 1 1 2 2 2 3 3 3 4 4 4 5 5 4 4 4 4 4 3 2 1 1 1 2 3 2 2 4 3 4 4 3 3 3 3 3 3 3 3 4 3 3 3
1 1 1 2 2 2 2 3 3 4 4 4 5 5 4 4 4 4 4 3 2 1 2 2 3 2 2 2 4 4 4 4 4 3 3 4 4 4 3 3 4 3 3 3
1 2 2 2 2 2 2 2 3 3 4 4 5 5 5 5 5 4 3 2 1 2 2 3 2 0 1 3 4 4 4 4 3 3 3 4 4 3 3 4 4 3 3 3
0 1 2 2 2 2 2 2 3 3 4 4 4 4 4 3 3 3 3 2 2 2 3 1 1 2 2 4 3 3 3 4 3 3 3 3 3 3 3 4 3 3 3 3
0 1 1 2 2 3 3 2 3 3 3 3 4 4 4 4 3 3 1 3 3 3 2 3 4 3 5 4 3 3 3 3 3 3 3 3 3 3 3 3 3 3 3 4
1 1 2 2 2 2 2 3 3 3 3 3 3 3 3 3 2 2 1 2 4 4 2 4 6 5 5 3 3 3 3 2 3 4 3 3 3 3 2 3 3 3 3 3
1 1 1 1 1 1 1 1 1 1 2 2 2 2 1 1 2 2 2 2 3 3 2 2 3 4 3 2 3 2 2 1 2 3 3 3 3 3 3 3 4 3 3 3
2 2 2 2 1 1 1 1 1 1 1 1 1 1 2 2 2 1 1 1 1 2 1 1 2 2 2 2 2 2 1 1 2 2 3 3 3 3 3 3 3 3 3 3
Wind_Direction
253 257 244 231 229 227 240 260 268 265 252 212 155 147 149 145 151 159 157 157 149 140 132 141 141 143 144 145 141 140 151 155 151 153 161 174 171 167 172 206 224 235 303 326
239 234 234 237 233 233 238 246 251 253 249 167 144 150 151 161 170 174 168 168 158 148 145 153 149 152 150 147 142 149 158 153 147 154 163 176 184 180 175 174 253 299 292 305
231 220 228 230 234 236 235 241 245 251 238 169 175 174 177 178 174 170 167 167 162 162 160 155 153 155 154 147 146 153 158 152 147 155 161 175 177 164 168 184 198 259 298 312
238 220 238 240 220 240 240 243 251 250 209 188 176 155 160 171 169 157 151 156 157 157 148 146 145 144 146 146 150 152 149 148 148 162 171 176 174 164 178 228 244 280 314 315
241 236 235 205 207 230 235 236 243 238 197 176 153 158 149 146 150 147 143 148 150 146 139 135 139 142 145 150 149 148 143 144 148 160 158 159 160 153 167 230 281 342 337 324
240 247 246 222 161 237 242 226 211 225 204 189 191 216 159 145 137 123 119 122 131 131 129 130 135 136 142 144 145 147 145 146 149 149 143 129 110 109 97 109 90 33 49 2
238 245 249 33 186 203 230 247 103 214 209 204 210 340 103 127 124 114 117 120 123 122 116 118 129 137 140 132 140 141 135 137 135 131 136 118 106 106 103 79 72 57 60 26
236 242 238 85 190 226 356 26 23 189 189 174 126 116 124 130 133 129 125 125 126 121 113 112 120 130 129 126 114 120 131 134 132 133 126 112 114 115 99 106 164 130 87 3
260 274 63 83 39 32 348 319 235 175 153 148 146 142 138 139 141 138 134 133 132 126 121 114 115 121 120 108 106 115 118 114 112 116 112 118 145 146 171 197 280 347 350 358
231 194 154 123 8 348 329 332 35 141 144 154 149 147 145 144 145 143 142 142 139 136 130 121 115 115 112 109 115 127 126 127 137 148 145 124 82 63 9 355 335 331 330 330
225 219 215 167 36 18 72 97 118 130 138 145 143 148 148 147 147 145 143 143 140 138 135 133 129 125 122 114 121 130 133 145 166 169 151 153 160 20 336 21 4 319 321 326
244 196 246 175 69 82 103 119 126 134 137 138 141 142 148 145 144 145 144 141 140 142 142 139 137 131 128 134 141 155 169 178 185 182 175 196 186 169 136 176 134 154 334 314
297 287 312 197 174 141 123 118 117 127 134 134 133 139 144 142 143 143 142 144 148 149 145 145 144 140 143 149 157 180 211 224 227 207 199 220 223 226 211 180 182 188 201 227
162 155 163 179 176 149 132 125 126 119 122 126 126 133 141 143 142 142 143 149 151 152 155 156 156 156 160 169 183 199 219 202 247 246 236 243 248 250 257 266 246 214 190 190
212 231 195 175 155 146 145 142 141 135 128 126 129 141 150 151 146 143 146 151 151 158 157 159 166 167 176 193 199 212 219 226 257 272 262 256 261 265 268 270 275 278 261 170
233 201 178 177 172 169 168 166 165 159 155 155 153 151 150 149 148 147 146 154 163 161 155 167 176 182 196 204 208 219 205 186 258 270 263 261 272 282 283 280 274 273 274 299
208 196 192 194 194 191 189 187 183 174 175 180 172 161 160 160 160 162 163 166 166 161 165 169 178 203 214 219 235 242 234 194 205 244 264 277 280 279 285 287 288 284 284 7
227 223 219 218 218 212 204 198 191 183 182 173 168 174 177 178 179 174 172 167 165 171 179 181 188 211 219 230 250 261 254 250 249 259 269 273 280 275 276 282 286 285 287 242
207 208 210 210 214 213 207 203 194 183 175 174 175 178 182 181 178 175 172 177 191 200 196 193 186 226 225 229 265 253 258 254 248 252 265 253 252 265 273 276 277 279 279 273
196 190 191 187 188 190 185 181 178 176 180 178 171 171 175 178 175 173 177 192 210 209 175 183 220 238 239 219 244 255 257 258 261 260 263 265 264 267 271 274 278 276 273 271
191 173 156 151 152 166 161 162 171 175 174 175 175 176 176 176 174 179 194 198 180 198 198 190 230 244 246 252 245 258 260 258 257 258 261 264 268 269 273 273 272 270 270 271
181 169 157 151 145 145 155 170 169 165 165 169 171 170 170 178 184 190 208 231 187 163 222 233 236 165 297 259 251 259 264 265 263 263 269 276 276 274 276 279 277 276 275 277
151 162 158 161 153 147 155 165 162 161 164 168 173 178 186 195 209 210 208 196 196 179 236 257 82 118 229 247 257 261 267 270 272 274 277 283 286 283 283 281 282 280 278 275
135 158 153 146 145 153 158 154 153 159 162 172 184 192 198 199 209 224 218 147 160 193 240 115 132 172 233 244 253 256 255 261 272 277 278 279 277 279 284 284 280 276 273 272
168 157 147 155 165 162 156 161 163 168 180 184 182 185 205 205 203 203 201 188 169 201 205 151 166 204 237 252 258 261 258 273 288 289 286 290 287 279 275 277 280 277 272 271
171 184 156 165 130 111 153 172 180 174 175 174 170 170 171 158 158 168 189 191 178 182 200 168 183 216 241 247 249 258 271 267 264 269 290 290 286 285 281 281 280 281 283 285
169 163 155 152 152 162 171 198 197 192 182 178 172 150 138 131 131 141 165 184 171 175 178 185 215 239 246 241 243 255 267 269 276 284 288 294 296 292 288 286 289 293 290 287